OBJECT AA, 66690

Orbit data source: Space-Track

You're viewing an uncataloged RSO

Recently launched and/or uncataloged RSOs may have evolving metadata. Metadata may include the following, but is not limited to: Owner, Manufacturer, Bus, Motor, and Mission.

OBJECT AA, 66690 is a satellite in SSO that was launched on Fri, 28 Nov 2025 UTC via an FALCON 9 launch vehicle from the Air Force Western Test Range (AFWTR). Unknown objects in Earth's orbit typically refer to objects detected orbiting the Earth but have not yet been identified or cataloged. These objects could be anything from previously untracked satellites, spent rocket stages, debris from satellite collisions, or even natural meteoroids temporarily captured by Earth's gravity.

Loading next visibility...
Identifier
66690, 2025-276AA
Orbit
SSO
Country
Flag of TBDTBD
Related business
None
Manufacturer
Unknown
Mission
Operational Commercial Technology
Bus & Motor
Unknown
Mass
Unknown
Launch date (UTC)
2025-11-28 (9 months ago)
Launch vehicle
FALCON 9
Launch site
Air Force Western Test Range (AFWTR)
Object type
Unknown
Shape & HBR
Box, 0.2 m
Radar Cross Section
0.035 m², Medium (>0.1 m² and < 1m²)

Expand to show TLE details & history
Last TLE update: 7 hours ago

TLE from 7 hours ago
0 OBJECT AA
1 66690U 25276AA  26238.61799248  .00004627  00000-0  22066-3 0  9994
2 66690  97.4140 310.6883 0006377 108.8446 251.3481 15.19561952 41101
Epoch: 2026-08-26T14:49Z
TLE epoch observation values (Epoch: 2026-08-26T14:49:54.550Z)
Latitude
Longitude
113.3426°
Altitude
511.66 km
Speed
7.607 km/s
True Right ascension
20h 42m 45s
True Declination
0° 00' 00"
Sunlit
Object was in full shadow at epoch
Visualization orbit readout
Latitude
Unknown
Longitude
Unknown
Altitude
Unknown
Speed
Unknown
Apparent Right ascension
Unknown
Apparent Declination
Unknown
Sunlit
N/A
Visualization observer readout
Local Sidereal Time
13:30:46
Azimuth
Unknown
Elevation
Unknown
Doppler factor
Unknown
Orbital elements
Apogee altitude
508.519 km
Perigee altitude
499.741 km
Semi-major axis
6,882.267 km
Eccentricity
0.00064
Inclination
97.414°
RAAN
310.6883°
Arg. of periapsis
108.8446°
True anomaly
251.27888°
Mean anomaly
251.3481°
Eccentric anomaly
251.31349°
Mean motion
3.80142 °/min
Orbital period
94.7 mins
BSTAR
0.00022066
Loading maneuver chart data...
Computing Atmospheric mass density...
Loading historical data...
Loading historical data...
Loading historical data...
Loading historical data...
Loading historical data...
Loading historical data...
Loading historical data...

Documentation

Showing up to 5 results
|